Starlink 1873

operational
NORAD ID: 47158 Int'l Des: 2020-088 Owner: SPXS Country: US Constellation: starlink
LEOCIRCULARSTARLINK_TYPE

Über Starlink 1873

Beschreibung wird geladen...

Live-Position

3D-Globus wird geladen...

Nächste Überflüge

Höhenverlauf

Altitude vs Time

uPlot chart will show altitude changes over time

Zweizeiliger Elementsatz

1 47158U 20088AN 25351.00003472 .00011286 00000-0 63138-3 0 9997
2 47158 53.0537 302.6993 0001501 99.6748 290.1217 15.13920932 5846
Epoch: 17. Dez. 2025 • Age: 5 hours

Aktueller Status

Höhe 524.3 km
Geschwindigkeit 7.60 km/s
Subsatellitenpunkt 16.81°N, 158.06°E
Startdatum 25. Nov. 2020
Alter 5 years
Typ internet

Technische Details

Klassifizierung Payload
Masse 260.00 kg
Trockenmasse 248.00 kg
Gesamtmasse 260.00 kg
Länge 0.20 m
Durchmesser 2.80 m
Spannweite 9.00 m
Form Box + pan
Hersteller SPXS
Bus-Typ Starlink
Phasenstatus In Orbit
Besitzer/Staat SPXS/US

Große Konstellationen

Loading constellations...